[[{"header":{"parameterUnit":"m.s-1","parameterCategory":1,"la1":30.2991,"la2":30.254,"lo1":-89.0895,"lo2":-89.0444,"dy":0.0017,"dx":0.0017,"nx":28,"ny":28,"refTime":"2025-06-12T21:00:00:Z","depth":0,"parameterNumber":2,"parameterNumberName":"U-component_of_WINDS"},"data":[0,0,0,0,0,0,0,0,0,0,0,0,0,0,0,0,0,0,0,0,0,0,0,0,0,0,0,0,0,0,0,0,0,0,0,0,0,0,0,0,0,0,0,0,0,0,0,0,0,0,0,0,0,0,0,0,0,0,-1.7802,-1.7801,0,-1.7695,-1.7693,-1.7692,-1.7611,-1.761,-1.7609,-1.7609,-1.7493,-1.7491,-1.7488,0,0,0,0,0,0,0,0,0,0,0,0,0,-1.7935,-1.7933,-1.7803,-1.7801,-1.78,-1.7695,-1.7693,-1.7692,-1.7611,-1.761,-1.7609,-1.7608,-1.7494,-1.7491,-1.7488,0,0,0,0,0,0,0,0,0,0,0,0,0,-1.7858,-1.7933,-1.7803,-1.7747,-1.7741,-1.7695,-1.7693,-1.7691,-1.7611,-1.761,-1.7609,-1.7608,-1.7495,-1.7491,-1.7488,-1.7487,0,0,-1.7476,-1.7475,0,0,0,0,0,0,0,0,-1.7862,-1.7853,-1.7757,-1.7751,-1.7744,-1.7665,-1.7697,-1.7623,-1.7611,-1.766,-1.7609,-1.7607,-1.7551,-1.7542,-1.7524,-1.7481,-1.7476,-1.7476,-1.7474,-1.7472,-1.7471,0,0,0,0,0,0,0,-1.7868,-1.7857,-1.776,-1.7755,-1.7748,-1.7726,-1.7714,-1.7683,-1.7613,-1.7656,-1.765,-1.7638,-1.7547,-1.7528,-1.7521,-1.7475,-1.7476,-1.7473,-1.7471,-1.7469,-1.7427,-1.7428,0,0,0,0,0,0,-1.7882,-1.7862,-1.7763,-1.7756,-1.7802,-1.7725,-1.7711,-1.7691,-1.7613,-1.76,-1.7639,-1.7635,-1.7535,-1.7525,-1.7517,-1.7511,-1.7472,-1.7469,-1.7467,-1.7426,-1.7427,-1.7428,0,0,0,0,0,0,-1.7885,-1.7874,-1.7767,-1.7808,-1.7792,-1.7724,-1.7702,-1.769,-1.7671,-1.76,-1.7587,-1.7633,-1.7534,-1.7522,-1.7495,-1.7506,-1.7467,-1.7464,-1.7424,-1.7426,-1.7427,-1.75,0,0,0,0,0,0,-1.789,-1.7876,-1.7876,-1.7808,-1.7791,-1.7749,-1.7703,-1.7689,-1.7665,-1.7659,-1.7591,-1.7579,-1.7532,-1.7501,-1.7492,-1.75,-1.7461,-1.7423,-1.7425,-1.7427,-1.7496,-1.7504,-1.751,0,0,0,0,0,-1.7895,-1.7899,-1.7876,-1.7864,-1.7789,-1.775,-1.774,-1.7687,-1.7667,-1.7665,-1.762,-1.7581,-1.7507,-1.7499,-1.7488,-1.7495,-1.7422,-1.7424,-1.7427,-1.7493,-1.7502,-1.751,0,0,0,0,0,0,-1.7967,-1.7889,-1.7863,-1.7845,-1.7805,-1.7737,-1.7733,-1.7698,-1.7662,-1.7657,-1.7591,-1.7577,-1.7558,-1.7524,-1.7517,-1.7491,-1.7459,-1.746,-1.7514,-1.7522,-1.7529,-1.7537,-1.7458,0,0,0,0,0,-1.7982,-1.7958,-1.789,-1.7882,-1.7863,-1.7802,-1.7783,-1.7746,-1.7701,-1.7683,-1.7636,-1.7593,-1.756,-1.7539,-1.7504,-1.7492,-1.7476,-1.7491,-1.7498,-1.7504,-1.7505,-1.7496,-1.7503,-1.7436,-1.7436,-1.7436,0,0,-1.801,-1.7965,-1.7953,-1.7895,-1.786,-1.7836,-1.7788,-1.7764,-1.7745,-1.7679,-1.7652,-1.7616,-1.7563,-1.7544,-1.7533,-1.7515,-1.752,-1.7507,-1.7513,-1.751,-1.75,-1.7506,-1.7512,-1.7437,-1.7437,-1.7437,0,0,-1.805,-1.8014,-1.8003,-1.7969,-1.7917,-1.7876,-1.7874,-1.7811,-1.7785,-1.7758,-1.7708,-1.7684,-1.7628,-1.7593,-1.7568,-1.7598,-1.756,-1.7588,-1.7624,-1.7616,-1.7622,-1.7626,-1.7637,-1.7641,-1.7589,-1.7589,-1.7589,0,-1.8092,-1.8055,-1.8001,-1.7981,-1.7957,-1.7898,-1.7887,-1.7856,-1.7795,-1.7779,-1.776,-1.7691,-1.7651,-1.7623,-1.7631,-1.7612,-1.7607,-1.7595,-1.7626,-1.7629,-1.7633,-1.7642,-1.7646,-1.7593,-1.7592,-1.7592,-1.7592,0,-1.8109,-1.8084,-1.8081,-1.8026,-1.8002,-1.7986,-1.7929,-1.7911,-1.7877,-1.7839,-1.7812,-1.7763,-1.7718,-1.7709,-1.7674,-1.7676,-1.7667,-1.7638,-1.7605,-1.7644,-1.7652,-1.7655,-1.7598,-1.7597,-1.7596,-1.7595,0,0,-1.819,-1.8107,-1.8107,-1.8081,-1.802,-1.8,-1.7981,-1.794,-1.7925,-1.7886,-1.7868,-1.7824,-1.7798,-1.7769,-1.773,-1.7724,-1.7751,-1.7696,-1.7693,-1.7708,-1.7751,-1.7774,-1.7779,-1.7727,-1.7727,-1.7728,-1.7756,0,-1.822,-1.8185,-1.8137,-1.8118,-1.8095,-1.804,-1.8024,-1.7985,-1.7949,-1.7923,-1.7883,-1.7853,-1.782,-1.7803,-1.7794,-1.775,-1.7759,-1.7747,-1.7709,-1.7709,-1.7724,-1.7783,-1.7805,-1.7834,-1.7759,-1.7759,-1.7759,0,-1.825,-1.8216,-1.8195,-1.8138,-1.8126,-1.8113,-1.8071,-1.8048,-1.8002,-1.7976,-1.7947,-1.7906,-1.7883,-1.7854,-1.7822,-1.7815,-1.7797,-1.7774,-1.7773,-1.7767,-1.7736,-1.7778,-1.7842,-1.7847,-1.7764,-1.7763,-1.7763,0,-1.8312,-1.826,-1.8241,-1.8221,-1.8153,-1.8145,-1.8117,-1.807,-1.8049,-1.8012,-1.7998,-1.7959,-1.7937,-1.7908,-1.7857,-1.7841,-1.7831,-1.7797,-1.7808,-1.781,-1.7808,-1.7808,-1.787,-1.7797,-1.7797,-1.7797,-1.7797,0,-1.835,-1.834,-1.8268,-1.8256,-1.8243,-1.8188,-1.8176,-1.8142,-1.8102,-1.8082,-1.8032,-1.8014,-1.7949,-1.7924,-1.7884,-1.7864,-1.7854,-1.7833,-1.7822,-1.7837,-1.784,-1.7824,-1.782,-1.7798,-1.7798,-1.7798,-1.7797,0,-1.8416,-1.8367,-1.8343,-1.8282,-1.8267,-1.826,-1.8207,-1.8193,-1.8156,-1.8132,-1.8123,-1.8063,-1.8031,-1.7978,-1.793,-1.7903,-1.7891,-1.7873,-1.7907,-1.79,-1.7914,-1.7914,-1.7967,-1.7971,-1.7896,-1.7897,-1.7898,0,-1.8443,-1.8434,-1.8373,-1.8357,-1.8331,-1.8306,-1.8284,-1.823,-1.821,-1.8159,-1.8151,-1.8116,-1.8085,-1.8036,-1.7987,-1.7951,-1.7932,-1.7953,-1.7925,-1.7941,-1.7932,-1.7933,-1.7932,-1.7959,-1.796,-1.7961,-1.7962,0,-1.8498,-1.8475,-1.8446,-1.841,-1.8387,-1.8355,-1.8321,-1.8311,-1.8249,-1.8229,-1.8196,-1.8172,-1.8125,-1.809,-1.8047,-1.8016,-1.7979,-1.7971,-1.7972,-1.7986,-1.8007,-1.7996,-1.7924,-1.797,-1.7969,-1.7968,-1.7968,-1.7968,-1.8545,-1.8535,-1.8491,-1.8461,-1.843,-1.84,-1.8385,-1.8347,-1.8319,-1.8277,-1.8247,-1.8217,-1.8173,-1.8111,-1.8083,-1.8058,-1.8041,-1.8042,-1.8042,-1.8043,-1.8049,-1.8012,-1.805,-1.805,-1.805,-1.8049,-1.8049,0,-1.8597,-1.8566,-1.854,-1.8495,-1.8472,-1.8441,-1.8402,-1.8384,-1.8359,-1.8322,-1.8293,-1.8257,-1.8223,-1.8174,-1.8136,-1.8126,-1.8108,-1.8118,-1.8118,-1.8112,-1.8066,-1.807,-1.8134,-1.8134,-1.8134,-1.8134,-1.8134,-1.8134,-1.8621,-1.8603,-1.8575,-1.8541,-1.851,-1.8482,-1.8462,-1.8434,-1.8404,-1.8366,-1.8339,-1.8308,-1.8265,-1.8225,-1.8193,-1.818,-1.8168,-1.8184,-1.8165,-1.8123,-1.8115,-1.8107,-1.811,-1.8182,-1.8182,-1.8212,-1.8213,-1.8213]},{"header":{"parameterUnit":"m.s-1","parameterCategory":1,"la1":30.2991,"la2":30.254,"lo1":-89.0895,"lo2":-89.0444,"dy":0.0017,"dx":0.0017,"nx":28,"ny":28,"refTime":"2025-06-12T21:00:00:Z","depth":0,"parameterNumber":3,"parameterNumberName":"V-component_of_WINDS"},"data":[0,0,0,0,0,0,0,0,0,0,0,0,0,0,0,0,0,0,0,0,0,0,0,0,0,0,0,0,0,0,0,0,0,0,0,0,0,0,0,0,0,0,0,0,0,0,0,0,0,0,0,0,0,0,0,0,0,0,3.5092,3.5091,0,3.5049,3.5048,3.5048,3.5036,3.5036,3.5036,3.5037,3.4989,3.4987,3.4986,0,0,0,0,0,0,0,0,0,0,0,0,0,3.5158,3.5157,3.5092,3.5091,3.5091,3.5049,3.5048,3.5048,3.5036,3.5036,3.5037,3.5037,3.4989,3.4988,3.4986,0,0,0,0,0,0,0,0,0,0,0,0,0,3.5124,3.5157,3.5092,3.508,3.5078,3.5049,3.5048,3.5047,3.5036,3.5036,3.5037,3.5037,3.499,3.4988,3.4986,3.4964,0,0,3.4979,3.4978,0,0,0,0,0,0,0,0,3.5126,3.5121,3.5082,3.5081,3.5079,3.5048,3.5054,3.5019,3.5036,3.5052,3.5037,3.5037,3.5008,3.5004,3.4995,3.4962,3.496,3.4978,3.4977,3.4976,3.4975,0,0,0,0,0,0,0,3.5128,3.5123,3.5075,3.5081,3.508,3.5075,3.507,3.5048,3.5028,3.505,3.505,3.5045,3.5007,3.4998,3.4994,3.4959,3.4978,3.4976,3.4975,3.4974,3.4903,3.4902,0,0,0,0,0,0,3.5133,3.5125,3.5076,3.5073,3.5104,3.5073,3.5068,3.5058,3.5028,3.5024,3.5045,3.5044,3.5001,3.4997,3.4992,3.4964,3.4976,3.4974,3.4973,3.4903,3.4903,3.4902,0,0,0,0,0,0,3.5135,3.5129,3.5078,3.5099,3.5092,3.5072,3.506,3.5057,3.5047,3.5024,3.502,3.5039,3.5001,3.4996,3.4971,3.4962,3.4973,3.4971,3.4904,3.4903,3.4903,3.4908,0,0,0,0,0,0,3.5137,3.513,3.5123,3.5099,3.5091,3.5059,3.5059,3.5055,3.5044,3.5043,3.5017,3.5013,3.5001,3.4974,3.4969,3.496,3.4969,3.4905,3.4904,3.4903,3.4909,3.4908,3.4907,0,0,0,0,0,3.5139,3.5125,3.5122,3.5116,3.5082,3.5058,3.5053,3.5041,3.5043,3.5035,3.502,3.5014,3.4964,3.4972,3.4965,3.4955,3.4905,3.4904,3.4903,3.4909,3.4908,3.4907,0,0,0,0,0,0,3.5147,3.5122,3.5118,3.5097,3.508,3.5056,3.5046,3.504,3.5021,3.5021,3.5005,3.4999,3.4976,3.4963,3.4972,3.4932,3.4934,3.4932,3.4941,3.494,3.4939,3.4943,3.4967,0,0,0,0,0,3.5147,3.5131,3.5109,3.5092,3.5084,3.5066,3.5055,3.5047,3.5028,3.5021,3.5004,3.4985,3.4964,3.4951,3.4931,3.4906,3.49,3.4896,3.4895,3.4895,3.4893,3.4877,3.4875,3.4898,3.4898,3.4898,0,0,3.5146,3.513,3.5121,3.5093,3.5079,3.5062,3.506,3.5042,3.5029,3.5017,3.4994,3.498,3.4957,3.4932,3.492,3.4921,3.4885,3.4893,3.4893,3.4891,3.4876,3.4874,3.4872,3.4898,3.4898,3.4898,0,0,3.5134,3.5121,3.5105,3.5091,3.507,3.5058,3.5054,3.5031,3.5022,3.4997,3.4988,3.4971,3.4937,3.492,3.4908,3.4888,3.4882,3.4882,3.4877,3.4862,3.486,3.4859,3.4851,3.4848,3.488,3.488,3.488,0,3.5135,3.511,3.5097,3.5079,3.5067,3.5057,3.5039,3.5026,3.4998,3.4989,3.4991,3.4947,3.493,3.4901,3.4896,3.4886,3.488,3.4885,3.4862,3.486,3.4858,3.4851,3.4848,3.488,3.488,3.488,3.488,0,3.5111,3.5093,3.5083,3.5058,3.5044,3.5027,3.501,3.4997,3.4989,3.4976,3.495,3.4931,3.4906,3.4898,3.489,3.4867,3.4868,3.4865,3.4868,3.4856,3.4849,3.4846,3.488,3.488,3.488,3.488,0,0,3.5105,3.5073,3.5069,3.5057,3.5032,3.5018,3.4998,3.4975,3.4964,3.4945,3.4928,3.4898,3.4896,3.4881,3.4871,3.4858,3.4842,3.4857,3.4856,3.4855,3.4814,3.4816,3.4813,3.4837,3.4837,3.4836,3.4816,0,3.509,3.5058,3.5045,3.5018,3.5001,3.499,3.4973,3.4955,3.4942,3.4924,3.4908,3.4888,3.4886,3.4877,3.4864,3.4847,3.4834,3.4848,3.482,3.4819,3.4827,3.4809,3.4812,3.4793,3.4813,3.4812,3.4812,0,3.507,3.5051,3.5023,3.4999,3.4991,3.4977,3.4954,3.4937,3.4915,3.4906,3.489,3.488,3.4857,3.486,3.4828,3.4838,3.4825,3.4815,3.4814,3.4811,3.4815,3.4806,3.4787,3.4784,3.4807,3.4808,3.4808,0,3.5068,3.5036,3.5015,3.5005,3.4976,3.4966,3.4953,3.4932,3.4918,3.4897,3.4888,3.4864,3.4851,3.4832,3.4815,3.4819,3.4784,3.4786,3.4775,3.4776,3.4769,3.477,3.4748,3.476,3.476,3.4761,3.4761,0,3.5053,3.5036,3.5013,3.5,3.498,3.4964,3.4944,3.493,3.4911,3.4893,3.4882,3.4865,3.4844,3.4824,3.481,3.4785,3.4779,3.477,3.4767,3.4771,3.4773,3.4763,3.4764,3.476,3.476,3.476,3.476,0,3.5048,3.5033,3.5008,3.4983,3.4976,3.4963,3.494,3.4926,3.4912,3.489,3.4883,3.4861,3.4837,3.4818,3.4786,3.4776,3.475,3.4746,3.4758,3.4756,3.4746,3.4747,3.4718,3.4713,3.4729,3.4728,3.4728,0,3.504,3.5027,3.5,3.4989,3.4976,3.4957,3.4943,3.4926,3.4912,3.4885,3.4874,3.4849,3.4829,3.479,3.477,3.4745,3.474,3.4731,3.4736,3.4741,3.474,3.4741,3.4739,3.4731,3.4731,3.4731,3.4731,0,3.5027,3.502,3.5002,3.498,3.4964,3.4946,3.4927,3.4917,3.4897,3.4881,3.4857,3.4841,3.4808,3.4783,3.4756,3.4741,3.4732,3.4729,3.4725,3.473,3.4738,3.4734,3.4756,3.473,3.473,3.473,3.473,3.473,3.502,3.5008,3.4987,3.4966,3.4951,3.4933,3.4918,3.4902,3.4882,3.4856,3.4846,3.4821,3.4797,3.476,3.4744,3.4723,3.4722,3.4717,3.4715,3.4714,3.4715,3.4741,3.4718,3.4718,3.4718,3.4718,3.4718,0,3.5007,3.4993,3.4974,3.4949,3.4932,3.4926,3.4904,3.489,3.4869,3.4848,3.4828,3.4799,3.4774,3.4752,3.4725,3.4712,3.4707,3.4706,3.4707,3.4703,3.4717,3.4723,3.471,3.471,3.471,3.471,3.471,3.471,3.4998,3.4976,3.4966,3.4935,3.492,3.4897,3.4885,3.4868,3.4851,3.482,3.48,3.4786,3.4764,3.4735,3.4712,3.4705,3.4696,3.4696,3.4688,3.4701,3.4702,3.4703,3.4709,3.4694,3.4694,3.4676,3.4676,3.4676]}]]